Regional Weather Roundup
Issued by NWS

Home | Current Version | Previous Version | Text Only | Print | Product List | Glossary Off
Versions: 1 2 3 4 5 6 7 8 9 10 11 12 13 14 15 16 17 18 19 20 21 22 23 24 25 26 27 28 29 30 31 32 33 34 35 36 37 38 39 40 41 42 43 44 45 46 47 48 49 50

000
ASUS43 KMPX 030001
RWRMN
WEATHER ROUNDUP FOR MINNESOTA
NATIONAL WEATHER SERVICE TWIN CITIES/CHANHASSEN MN
700 PM CDT SUN AUG 02 2015


NOTE: "FAIR" INDICATES FEW OR NO CLOUDS BELOW 12,000 FEET WITH NO
SIGNIFICANT WEATHER AND/OR OBSTRUCTIONS TO VISIBILITY. N/A MEANS
CURRENT SKY AND/OR WEATHER CONDITIONS ARE NOT AVAILABLE.

MNZ060>063-068>070-030100-
   Twin Cities Metro

CITY           SKY/WX    TMP DP  RH WIND       PRES   REMARKS
TWIN CITIES    MOSUNNY   80  55  42 NW20G28   29.73R
6HR MIN TEMP:  80; 6HR MAX TEMP:  84;

ST PAUL        PTSUNNY   81  57  43 NW18G28   29.72R
CRYSTAL        SUNNY     81  54  39 NW21G29   29.73R
BLAINE         MOSUNNY   81  55  41 NW16G22   29.73R
LAKEVILLE      SUNNY     77  55  47 NW15G24   29.74R
EDEN PRAIRIE   SUNNY     81  56  42 NW16G25   29.73R
6HR MIN TEMP:  81; 6HR MAX TEMP:  86;

SOUTH ST PAUL  MOSUNNY   80  54  39 NW15G23   29.72R
LAKE ELMO      FAIR      79  59  50 NW15G22   29.73S
$$
MNZ001>005-007-008-013>017-022>024-027-028-030100-
   Northwest Minnesota

CITY           SKY/WX    TMP DP  RH WIND       PRES   REMARKS
BEMIDJI        SUNNY     71  45  39 NW17G25   29.80S
HALLOCK        SUNNY     75  45  33 NW14      29.79S
ROSEAU         SUNNY     70  46  43 NW16G26   29.79R
WARROAD        MOSUNNY   70  46  43 W12G25    29.78R
THIEF RVR FALL SUNNY     73  46  38 NW16      29.81S
CROOKSTON      SUNNY     75  46  35 NW16      29.81F
FOSSTON        SUNNY     73  43  33 NW13G18   29.83S
DETROIT LAKES  SUNNY     72  46  40 N13G21    29.85S
MOORHEAD       SUNNY     73  50  43 NW14G20   29.84S
PARK RAPIDS    SUNNY     73  45  36 NW21G26   29.81S
MAHNOMEN       FAIR      71  49  46 NW8       29.83S
$$
MNZ006-009>011-018-025>026-030100-
   North Central Minnesota

CITY           SKY/WX    TMP DP  RH WIND       PRES   REMARKS
BAUDETTE       CLOUDY    68  47  46 NW14      29.75R
FLAG ISLAND    CLOUDY    68  48  49 NW17      29.75R
INTL FALLS     MOSUNNY   69  45  41 NW13G21   29.72S
6HR MIN TEMP:  68; 6HR MAX TEMP:  73;

WASKISH        MOSUNNY   70  46  43 W21G28    29.77R
BIG FORK       PTSUNNY   68  48  49 CALM      29.75S
LONGVILLE      SUNNY     72  46  40 W10G21    29.78S
GRAND RAPIDS   PTSUNNY   72  45  37 NW20G29   29.76F
CRANE LAKE     PTSUNNY   66  43  42 NW8G16    29.72R
ORR            SUNNY     70  39  32 NW15G23   29.70S
COOK           SUNNY     70  45  40 W8        29.73R
WALKER         FAIR      70  46  41 NW12G22   29.79S
$$
MNZ012-019>021-037-030100-
   Northeast Minnesota

CITY           SKY/WX    TMP DP  RH WIND       PRES   REMARKS
DULUTH         MOSUNNY   72  45  37 NW13G28   29.72R
6HR MIN TEMP:  71; 6HR MAX TEMP:  78; 6HR PCP: TRACE;

ELY            PTSUNNY   66  41  39 NW12G25   29.70R
HIBBING        PTSUNNY   72  44  36 NW17G29   29.73S
EVELETH        SUNNY     70  41  35 NW10G21   29.73S
DULUTH HARBOR  MOSUNNY   75  50  41 NW21      29.70R
TWO HARBORS    SUNNY     73  52  46 NW8       29.68R
SILVER BAY     SUNNY     73  43  33 NW8       29.67R
GRAND MARAIS     N/A     73  44  35 VRB5      29.61R
G MARAIS ARPRT   N/A     64  41  42 NW6       29.67R
$$
MNZ029>031-032-039>041-046>048-054>057-064-030100-
   West Central Minnesota

CITY           SKY/WX    TMP DP  RH WIND       PRES   REMARKS
FERGUS FALLS   SUNNY     73  52  46 N14G22    29.82S
WHEATON        SUNNY     73  54  49 NW12      29.86R
MORRIS         MOSUNNY   75  55  50 NW13      29.83S
ALEXANDRIA     SUNNY     74  51  44 NW15      29.84S
ELBOW LAKE     FAIR      74  54  50 NW16      29.84R
WADENA         SUNNY     72  48  43 NW16G22   29.81S
GLENWOOD       SUNNY     73  52  46 NW13G20   29.84S
APPLETON       SUNNY     79  55  44 N12       29.82S
BENSON         MOSUNNY   77  55  47 N12       29.82S
ORTONVILLE     SUNNY     75  55  50 NW9       29.84S
MADISON        SUNNY     77  55  47 NW8       29.84S
WILLMAR        FAIR      77  57  50 NW16      29.83R
$$
MNZ033>034-036-042>043-049>051-058-059-030100-
   Central Minnesota

CITY           SKY/WX    TMP DP  RH WIND       PRES   REMARKS
ST CLOUD       MOSUNNY   76  53  44 NW15G24   29.77R
6HR MIN TEMP:  76; 6HR MAX TEMP:  83;

SAUK CENTRE    FAIR      74  52  45 NW13G21   29.82R
PAYNESVILLE    SUNNY     72  52  48 W13G21    29.81S
AITKIN         SUNNY     72  48  43 NW6       29.76S
PINE RIVER     SUNNY     73  48  40 NW12G18   29.83R
BRAINERD       SUNNY     74  43  32 NW15G23   29.79R
STAPLES        SUNNY     72  46  40 NW15G21   29.80F
LONG PRAIRIE   FAIR      72  50  46 W15       29.82S
LITTLE FALLS   SUNNY     73  45  35 NW12G21   29.79S
LITCHFIELD     SUNNY     75  55  50 NW16G23   29.80S
BUFFALO        SUNNY     77  51  40 NW13G23   29.77S
MAPLE LAKE     SUNNY     77  57  50 NW15G23   29.78R
$$
MNZ037-044-045-052-053-030100-
   East Central Minnesota

CITY           SKY/WX    TMP DP  RH WIND       PRES   REMARKS
PRINCETON      SUNNY     77  54  44 NW14G21   29.76R
MORA           SUNNY     73  50  43 NW14G23   29.76R
CAMBRIDGE      SUNNY     79  57  47 NW15G23   29.73R
RUSH CITY      SUNNY     75  54  47 NW12G17   29.74R
MOOSE LAKE     SUNNY     72  45  37 NW14G21   29.73R
HINCKLEY       FAIR      73  52  46 NW12G20   29.74R
CLOQUET        SUNNY     72  43  35 NW18      29.73R
MCGREGOR       SUNNY     72  45  37 NW15G24   29.77R
$$
MNZ071>073-080-081-089-090-097-098-030100-
   Southwest Minnesota

CITY           SKY/WX    TMP DP  RH WIND       PRES   REMARKS
MONTEVIDEO     SUNNY     79  57  47 N13       29.84S
GRANITE FALLS  MOSUNNY   77  58  52 NW10      29.84S
CANBY          SUNNY     76  56  50 N9        29.86S
MARSHALL       SUNNY     75  54  46 N13       29.85F
REDWOOD FALLS  SUNNY     78  56  46 NW12      29.81S
OLIVIA         SUNNY     73  54  49 NW14      29.81S
PIPESTONE      SUNNY     79  61  53 NE10      29.86S
WINDOM         SUNNY     75  59  57 NW14      29.84R
WORTHINGTON    SUNNY     77  61  57 N12       29.85S
JACKSON        SUNNY     79  63  57 N9G17     29.83F
TRACY          SUNNY     77  57  50 N13G18    29.85R
SLAYTON        SUNNY     76  59  55 N14       29.87R
$$
MNZ065>067-074>077-082>085-091>093-030100-
   South Central Minnesota

CITY           SKY/WX    TMP DP  RH WIND       PRES   REMARKS
MANKATO        SUNNY     79  57  47 NW14G21   29.77R
NEW ULM        SUNNY     77  55  47 NW18      29.79S
ST JAMES       SUNNY     79  61  53 NW14G20   29.81S
FAIRMONT       SUNNY     79  57  47 NW14G22   29.80S
GLENCOE        SUNNY     78  58  49 NW15G22   29.77S
FARIBAULT      SUNNY     79  59  50 NW8G17    29.76R
OWATONNA       SUNNY     79  59  50 NW14      29.76R
WASECA         SUNNY     77  59  53 NW12G18   29.78R
ALBERT LEA     SUNNY     79  61  53 NW9       29.77R
$$
MNZ078>079-086>088-094>096-030100-
   Southeast Minnesota

CITY           SKY/WX    TMP DP  RH WIND       PRES   REMARKS
ROCHESTER      SUNNY     78  62  57 NW18G24   29.74S
6HR MIN TEMP:  78; 6HR MAX TEMP:  84;

RED WING       MOSUNNY   81  61  50 NW9       29.69S
STANTON        SUNNY     80  59  48 NW14G20   29.72S
DODGE CENTER   SUNNY     77  63  61 NW9G18    29.75S
WINONA         SUNNY     81  61  50 NW9G17    29.69S
AUSTIN         SUNNY     82  63  51 W15       29.75S
PRESTON        MOSUNNY   77  62  59 NW12      29.74S
$$
ABBREVIATIONS USED IN REMARKS
   TC - TEMPERATURES IN CELSIUS
  WCI - WIND CHILL INDEX
   HX - HEAT INDEX
  VSB - VISIBILITY
$$


USA.gov is the U.S. government's official web portal to all federal, state and local government web resources and services.